User: anonymous   Login
Location: Unspecified
(0.0000°N, 0.0000°E)
Time: 09:43:22
(UTC+00:00)
Language:

Cosmos 2336 - Orbit

View from above orbital plane
View from above orbital plane
View from above satellite
View from above satellite

Ground track
Ground track

The orbit data is extracted from the following two-line orbital elements,

1 24677U 96071A   18015.44121447  .00000015  00000-0 -42222-6 0  9996
2 24677  82.9432 311.5144 0024015 162.8951 335.5218 13.71501750 54803
Epoch (UTC): 15 January 2018 10:35:20
Eccentricity: 0.0024015
inclination: 82.9432°
perigee height: 976 km
apogee height: 1012 km
right ascension of ascending node: 311.5144°
argument of perigee: 162.8951°
revolutions per day: 13.71501750
mean anomaly at epoch: 335.5218°
orbit number at epoch: 5480

The dashed part of the orbit path shows where the satellite is in the earth's shadow,  

DLR